Regional Weather Roundup
Issued by NWS Green Bay, WI

Home | Current Version | Previous Version | Graphics & Text | Print | Product List | Glossary Off
Versions: 1 2 3 4 5 6 7 8 9 10 11 12 13 14 15 16 17 18 19 20 21 22 23 24 25 26 27 28 29 30 31 32 33 34 35 36 37 38 39 40 41 42 43 44 45 46 47 48 49 50

000
ASUS43 KGRB 292111
RWRGRB

NORTH-CENTRAL AND NORTHEAST WISCONSIN REGIONAL WEATHER ROUNDUP
NATIONAL WEATHER SERVICE GREEN BAY WI
400 PM CDT MON JUN 29 2015

WIZ005-009-010>012-018-019-292200-
NORTH CENTRAL WISCONSIN

CITY           SKY/WX    TMP DP  RH WIND       PRES   REMARKS
IRONWOOD       NOT AVBL
MANITOWISH WTR CLOUDY    60  60 100 S5        29.78F
ARBOR VITAE    HVY RAIN  62  60  92 N3        29.79F
EAGLE RIVER    CLOUDY   N/A N/A N/A N14       29.78R
LAND O LAKES   CLOUDY    62  59  92 CALM      29.79F
RHINELANDER    TSTM      62  57  83 NW8       29.80R
PHILLIPS       DRIZZLE   61  59  95 SW5       29.79F
ANTIGO         PTSUNNY   72  61  70 SE13      29.77F
TOMAHAWK       LGT RAIN  60  56  89 W6        29.79F
MERRILL        PTSUNNY   67  57  72 NW14G33   29.81R
$$

WIZ013-073-292200-
NORTHEAST WISCONSIN

CITY           SKY/WX    TMP DP  RH WIND       PRES   REMARKS
IRON MOUNTAIN  CLOUDY    71  63  75 S6        29.74F
MARINETTE      MOSUNNY   77  55  47 S13G20    29.75S
OCONTO         MOSUNNY   76  60  56 S8        29.75F
$$

WIZ017-030-035>037-045-292200-
CENTRAL WISCONSIN

CITY           SKY/WX    TMP DP  RH WIND       PRES   REMARKS
MEDFORD        RAIN      58  56  92 NW8       29.82F
WAUSAU         MOSUNNY   76  59  55 W9        29.76S
MOSINEE        PTSUNNY   77  61  57 W9        29.78F
MARSHFIELD     MOSUNNY   76  60  57 NW8       29.79
WISC RAPIDS    MOSUNNY   79  59  50 NW8       29.78F
STEVENS POINT  MOSUNNY   76  57  52 SW7       29.77F
WAUPACA        PTSUNNY   74  68  82 S7        29.78S
SHAWANO        RAIN      68  64  86 SW3       29.78S
CLINTONVILLE   LGT RAIN N/A N/A N/A NE5       29.77F
$$

WIZ038-039-048-051-292200-
FOX VALLEY

CITY           SKY/WX    TMP DP  RH WIND       PRES   REMARKS
NWS GREEN BAY  PTSUNNY   78  60  53 SW13      29.76F
APPLETON       PTSUNNY   73  57  56 SW13      29.78F
OSHKOSH        MOSUNNY   77  62  59 S10       29.77F
FOND DU LAC    MOSUNNY   75  64  68 SW9       29.78F
$$

WIZ022-050-052-292200-
EAST CENTRAL WISCONSIN

CITY           SKY/WX    TMP DP  RH WIND       PRES   REMARKS
STURGEON BAY   SUNNY     75  55  50 S12G18    29.79F
MANITOWOC      SUNNY     73  59  61 MISG      29.79F
SHEBOYGAN      SUNNY     75  59  57 SE12      29.79S
$$

LMZ563-521-522-541>543-292200-
LAKESHORE

STATION/POSITION TIME  TEMP    WIND        PRES    VSBY  WAVE
                       AIR SEA DIR/SP/G                  HT/PER
                 (UTC) (F)     (DEG/KT/KT) (MB)    (MI)  (FT/S)
SHEBOYGAN LKSHOR 2100   61     160/ 10/ 11 1009.0F
KEWAUNEE LKSHORE 2000   63     190/  9/ 10 1008.4F
ALGOMA MARINA    2010          210/  6/  7   N/A
TWO RIVERS CG    2055   64 63              1009.0      6   2
NORTHPORT PIER   2000   71     150/  8/ 14 1008.1F
N MID LAKE BUOY  2050   58 51  230/  8/  8 1008.3F         1
S GREEN BAY BUOY 2100   75 72  180/ 10/ 12 1009.2F
CHAMBERS ISLAND  2000   76     150/  8/ 13 1007.8F
MENOMINEE LKSHOR 2000   71     120/  5/  6 1008.7F
$$



USA.gov is the U.S. government's official web portal to all federal, state and local government web resources and services.